METEOR 2-11 DEB, 42454

Orbit data source: Space-Track

METEOR 2-11 DEB, 42454 is space debris in LEO originally from a launch on Thu, 05 Jul 1984 UTC launched from the Plesetsk Missile And Space Complex (PKMTR). Debris objects in space refer to the collection of defunct objects orbiting the Earth. Examples of debris include non-operational satellites, rocket bodies, and fragments generated from explosions, collisions, or faulty payload assembly.

Loading next visibility...
Identifier
42454, 1984-072Q
Orbit
LEO
Country
Flag of CISCIS
Related business
Manufacturer
Unknown
Mission
Spacecraft
Bus & Motor
Unknown
Mass
Unknown
Launch date (UTC)
1984-07-05 (41 years ago)
Launch vehicle
Unknown
Launch site
Plesetsk Missile And Space Complex (PKMTR)
Object type
Payload
Rocket body
Debris
Shape & HBR
Unknown shape, 0.1 m
Radar Cross Section
Small (<0.1 m²)

Expand to show TLE details & history
Last TLE update: 14 hours ago

TLE from 14 hours ago
0 METEOR 2-11 DEB
1 42454U 84072Q   25346.73611452  .00004252  00000-0  29856-2 0  9994
2 42454  82.5126 154.9487 0013465 146.3812 213.8213 13.97969999536619
Epoch: 2025-12-12T17:40Z
TLE epoch observation values (Epoch: 2025-12-12T17:40:00.294Z)
Latitude
-0.00001°
Longitude
168.27401°
Altitude
911.902 km
Speed
7.392 km/s
True Right ascension
10h 19m 47s
True Declination
0° 00' 00"
Sunlit
Object was in daylight at epoch
Visualization orbit readout
Latitude
Unknown
Longitude
Unknown
Altitude
Unknown
Speed
Unknown
Apparent Right ascension
Unknown
Apparent Declination
Unknown
Sunlit
N/A
Visualization observer readout
Local Sidereal Time
06:11:04
Azimuth
Unknown
Elevation
Unknown
Doppler factor
Unknown
Orbital elements
Apogee altitude
907.765 km
Perigee altitude
888.17 km
Semi-major axis
7,276.104 km
Eccentricity
0.00135
Inclination
82.5126°
RAAN
154.9487°
Arg. of periapsis
146.3812°
True anomaly
213.73554°
Mean anomaly
213.8213°
Eccentric anomaly
213.77841°
Mean motion
3.49699 °/min
Orbital period
102.95 mins
BSTAR
0.0029856
Loading maneuver chart data...
Computing Atmospheric mass density...
Loading historical data...
Loading historical data...
Loading historical data...
Loading historical data...
Loading historical data...
Loading historical data...
Loading historical data...

Documentation

Showing up to 5 results
|